Reidsville, NC

10:30 PM EDT on May 29, 2017 (GMT -0400)
Reidsville

Weather History for KSIF - September, 2013

Change the Weather History Date:

Sunday, September 22, 2013

  Actual Average (KGSO) Record (KGSO)
Temperature  
Mean Temperature 64 °F -  
Max Temperature 75 °F 77 °F 95 °F (1931)
Min Temperature 54 °F 57 °F 39 °F (1918)
Growing Degree Days 14 (Base 50)    
Moisture  
Dew Point 57 °F    
Average Humidity 82    
Maximum Humidity 100    
Minimum Humidity 46    
Precipitation  
Precipitation 0.01 in - - ()
Sea Level Pressure  
Sea Level Pressure 29.84 in    
Wind  
Wind Speed 2 mph (NNE)    
Max Wind Speed 9 mph    
Max Gust Speed 17 mph    
Visibility 8 miles    
Events Fog    
Averages and records for this station are not official NWS values.
T = Trace of Precipitation, MM = Missing Value Source: NWS Daily Summary

Daily Weather History Graph

Daily Weather History Graph

Search for Another Location

Airport or City:

Trip Planner

Search our weather history database for the weather conditions in past years. The results will help you decide how hot, cold, wet, or windy it might be!

Date:

Astronomy

Sep. 22, 2013 Rise Set
Actual Time 7:07 AM EDT 7:15 PM EDT
Civil Twilight 6:41 AM EDT 7:41 PM EDT
Nautical Twilight 6:11 AM EDT 8:11 PM EDT
Astronomical Twilight 5:41 AM EDT 8:42 PM EDT
Moon 9:11 PM EDT (9/22) 10:19 AM EDT (9/22)
Length of Visible Light 12h 59m
Length of Day
12h 08m
Waning Gibbous, 89% of the Moon is Illuminated
Sep 22
Waning Gibbous
Sep 26
Last Quarter
Oct 4
New
Oct 11
First Quarter
Oct 18
Full

Hourly Weather History & Observations

Time (EDT) Temp. Dew Point Humidity Pressure Visibility Wind Dir Wind Speed Gust Speed Precip Events Conditions
12:15 AM 61.9 °F 61.9 °F 100% 29.78 in 0.8 mi Calm Calm - N/A   Mostly Cloudy
12:35 AM 61.5 °F 61.5 °F 100% 29.77 in 0.8 mi Calm Calm - N/A   Mist
12:55 AM 60.1 °F 60.1 °F 100% 29.76 in 0.8 mi Calm Calm - N/A   Mist
1:15 AM 59.7 °F 59.7 °F 100% 29.77 in 2.5 mi Calm Calm - N/A   Clear
1:35 AM 59.2 °F 59.2 °F 100% 29.77 in 0.8 mi Calm Calm - N/A   Mist
1:55 AM 58.6 °F 58.6 °F 100% 29.78 in 0.5 mi Calm Calm - N/A Fog Fog
2:15 AM 58.1 °F 58.1 °F 100% 29.78 in 0.5 mi Calm Calm - N/A Fog Fog
2:35 AM 56.7 °F 56.7 °F 100% 29.77 in 1.0 mi Calm Calm - N/A   Mist
2:55 AM 57.7 °F 57.7 °F 100% 29.77 in 0.5 mi Calm Calm - N/A Fog Fog
3:15 AM 59.0 °F 59.0 °F 100% 29.76 in 10.0 mi Calm Calm - 0.01 in   Clear
3:35 AM 58.3 °F 58.3 °F 100% 29.77 in 10.0 mi Calm Calm - 0.01 in   Clear
3:55 AM 57.4 °F 57.4 °F 100% 29.77 in 7.0 mi Calm Calm - 0.01 in   Clear
4:15 AM 56.8 °F 56.8 °F 100% 29.78 in 7.0 mi Calm Calm - N/A   Mostly Cloudy
4:35 AM 56.3 °F 56.3 °F 100% 29.78 in 7.0 mi Calm Calm - N/A   Mostly Cloudy
4:55 AM 56.3 °F 56.3 °F 100% 29.79 in 10.0 mi Calm Calm - N/A   Clear
5:15 AM 57.6 °F 57.6 °F 100% 29.79 in 10.0 mi Calm Calm - N/A   Clear
5:35 AM 57.7 °F 57.7 °F 100% 29.80 in 10.0 mi Calm Calm - N/A   Clear
5:55 AM 57.6 °F 57.6 °F 100% 29.80 in 10.0 mi Calm Calm - N/A   Clear
6:15 AM 57.0 °F 57.0 °F 100% 29.81 in 10.0 mi Calm Calm - N/A   Clear
6:35 AM 56.8 °F 56.7 °F 99% 29.81 in 10.0 mi North 3.5 mph - N/A   Clear
6:55 AM 56.7 °F 56.3 °F 99% 29.81 in 10.0 mi NNW 3.5 mph - N/A   Clear
7:15 AM 57.2 °F 55.8 °F 95% 29.81 in 10.0 mi North 4.6 mph - N/A   Clear
7:35 AM 57.2 °F 55.4 °F 94% 29.82 in 10.0 mi North 3.5 mph - N/A   Clear
7:55 AM 57.4 °F 55.4 °F 93% 29.83 in 10.0 mi NNE 3.5 mph - N/A   Clear
8:15 AM 58.6 °F 55.6 °F 90% 29.84 in 10.0 mi North 4.6 mph - N/A   Clear
8:35 AM 59.9 °F 56.3 °F 88% 29.85 in 10.0 mi North 5.8 mph - N/A   Clear
8:55 AM 61.2 °F 56.1 °F 83% 29.85 in 10.0 mi North 5.8 mph - N/A   Clear
9:15 AM 62.8 °F 56.5 °F 80% 29.86 in 10.0 mi North 5.8 mph - N/A   Clear
9:35 AM 63.9 °F 56.3 °F 76% 29.86 in 10.0 mi NNE 4.6 mph - N/A   Clear
9:55 AM 65.5 °F 57.0 °F 74% 29.86 in 10.0 mi North 5.8 mph - N/A   Clear
10:15 AM 66.4 °F 56.1 °F 69% 29.86 in 10.0 mi North 5.8 mph - N/A   Clear
10:35 AM 67.8 °F 56.5 °F 67% 29.86 in 10.0 mi NNE 5.8 mph - N/A   Clear
10:55 AM 69.1 °F 57.2 °F 66% 29.86 in 10.0 mi North 6.9 mph - N/A   Clear
11:15 AM 69.4 °F 55.2 °F 60% 29.86 in 10.0 mi North 6.9 mph 17.3 mph N/A   Clear
11:35 AM 69.8 °F 55.0 °F 59% 29.86 in 10.0 mi North 5.8 mph - N/A   Clear
11:55 AM 71.1 °F 54.5 °F 56% 29.86 in 10.0 mi NNE 9.2 mph - N/A   Clear
12:15 PM 71.4 °F 54.9 °F 56% 29.86 in 10.0 mi NNE 3.5 mph - N/A   Clear
12:35 PM 72.1 °F 54.9 °F 54% 29.86 in 10.0 mi ENE 6.9 mph - N/A   Scattered Clouds
12:55 PM 72.5 °F 54.1 °F 52% 29.86 in 10.0 mi NNE 8.1 mph - N/A   Scattered Clouds
1:15 PM 72.9 °F 54.1 °F 52% 29.86 in 10.0 mi NE 6.9 mph - N/A   Mostly Cloudy
1:35 PM 71.8 °F 53.8 °F 53% 29.85 in 10.0 mi North 3.5 mph - N/A   Mostly Cloudy
1:55 PM 73.4 °F 54.7 °F 52% 29.85 in 10.0 mi NNE 4.6 mph - N/A   Mostly Cloudy
2:15 PM 73.8 °F 54.7 °F 51% 29.85 in 10.0 mi NNE 4.6 mph - N/A   Scattered Clouds
2:35 PM 73.8 °F 54.5 °F 51% 29.84 in 10.0 mi NNE 4.6 mph - N/A   Mostly Cloudy
2:55 PM 74.5 °F 54.9 °F 50% 29.83 in 10.0 mi ENE 3.5 mph - N/A   Mostly Cloudy
3:15 PM 72.5 °F 54.3 °F 53% 29.83 in 10.0 mi Calm Calm - N/A   Scattered Clouds
3:35 PM 75.2 °F 54.0 °F 47% 29.83 in 10.0 mi North 3.5 mph - N/A   Scattered Clouds
3:55 PM 75.9 °F 54.0 °F 46% 29.83 in 10.0 mi NE 8.1 mph - N/A   Mostly Cloudy
4:15 PM 72.0 °F 55.2 °F 55% 29.83 in 10.0 mi NNE 3.5 mph - N/A   Mostly Cloudy
4:35 PM 75.0 °F 53.8 °F 47% 29.83 in 10.0 mi North 5.8 mph - N/A   Scattered Clouds
4:55 PM 71.6 °F 56.3 °F 58% 29.83 in 10.0 mi North 3.5 mph - N/A   Scattered Clouds
5:15 PM 73.2 °F 56.3 °F 55% 29.84 in 10.0 mi Calm Calm - N/A   Scattered Clouds
5:35 PM 73.6 °F 54.7 °F 51% 29.84 in 10.0 mi Calm Calm - N/A   Scattered Clouds
5:55 PM 69.6 °F 59.2 °F 69% 29.85 in 10.0 mi Calm Calm - N/A   Scattered Clouds
6:15 PM 70.5 °F 61.5 °F 73% 29.85 in 10.0 mi Calm Calm - N/A   Clear
6:35 PM 67.6 °F 60.4 °F 78% 29.85 in 10.0 mi Calm Calm - N/A   Scattered Clouds
6:55 PM 65.5 °F 61.7 °F 88% 29.85 in 10.0 mi Calm Calm - N/A   Mostly Cloudy
7:15 PM 63.3 °F 60.8 °F 91% 29.86 in 10.0 mi Calm Calm - N/A   Mostly Cloudy
7:35 PM 61.3 °F 59.7 °F 94% 29.86 in 10.0 mi Calm Calm - N/A   Scattered Clouds
7:55 PM 59.4 °F 58.5 °F 97% 29.86 in 7.0 mi Calm Calm - N/A   Scattered Clouds
8:15 PM 58.1 °F 57.4 °F 97% 29.87 in 7.0 mi Calm Calm - N/A   Scattered Clouds
8:35 PM 57.6 °F 57.2 °F 99% 29.87 in 7.0 mi Calm Calm - N/A   Mostly Cloudy
8:55 PM 57.0 °F 56.7 °F 99% 29.88 in 7.0 mi Calm Calm - N/A   Scattered Clouds
9:15 PM 55.9 °F 55.6 °F 99% 29.89 in 7.0 mi Calm Calm - N/A   Clear
9:35 PM 55.4 °F 55.2 °F 99% 29.90 in 5.0 mi Calm Calm - N/A   Scattered Clouds
9:55 PM 54.7 °F 54.5 °F 99% 29.91 in 7.0 mi Calm Calm - N/A   Scattered Clouds
10:15 PM 54.3 °F 54.0 °F 99% 29.91 in 5.0 mi Calm Calm - N/A   Clear
10:35 PM 54.5 °F 54.5 °F 100% 29.92 in 7.0 mi Calm Calm - N/A   Mostly Cloudy
10:55 PM 59.7 °F 57.6 °F 93% 29.92 in 10.0 mi North 3.5 mph - N/A   Mostly Cloudy
11:15 PM 61.2 °F 56.3 °F 84% 29.93 in 10.0 mi NNE 3.5 mph - N/A   Mostly Cloudy
11:35 PM 59.9 °F 56.3 °F 88% 29.94 in 10.0 mi Calm Calm - N/A   Scattered Clouds
11:55 PM 56.5 °F 55.0 °F 95% 29.94 in 7.0 mi Calm Calm - N/A   Scattered Clouds